Location: Poughquag
(41.6090°N, 73.6820°W)
Time: 14:25:04
(UTC-04:00)

Courier 1B - Pass Details

Date: 02 June 2020
Orbit: 962 x 1209 km, 28.3° (Epoch: 05 July)

Event Time Altitude Azimuth Distance (km) Brightness Sun altitude
Exits shadow 03:42:03 21° 217° (SW) 2,431 8.9 -15.1°
Maximum altitude 03:44:05 23° 196° (SSW) 2,318 8.9 -14.8°
Drops below altitude 10° 03:49:53 10° 148° (SSE) 3,135 10.0 -14.1°
Sets 03:53:24 0° 135° (SE) 4,086 10.7 -13.7°
